Flag for Canada Weather past 2 weeks in Selkirk, Manitoba, Canada

Now
73 °F

Mild.


Feels Like: 77 °F
Forecast: 57 / 71 °F
Wind: 2 mph from Southwest

Location: Winnipeg The Forks

Current Time: Jul 25, 2014 at 11:06:57 PM

Latest Report: Jul 25, 2014 at 10:00 PM


Visibility: N/A

Pressure: 29.69 "Hg

Humidity: 45%

Dew point: 51 °F

Location of SelkirkLocation

Historic Weather in Selkirk — Graph

°F

Selkirk temperature yesterday

Maximum temperature yesterday: 76 °F (at 5:00 PM)
Minimum temperature yesterday: 57 °F (at 6:00 AM)
Average temperature yesterday: 67 °F

Past Weeks' High & Low Weather Summary

 TemperatureHumidityPressure
High88 °F (Jul 20, 3:00 PM)95% (Jul 15, 5:00 AM)30.33 "Hg (Jul 15, 5:00 AM)
Low49 °F (Jul 14, 3:00 AM)28% (Jul 25, 5:00 PM)29.49 "Hg (Jul 20, 2:00 PM)
Average68 °F64%29.89 "Hg
* Reported Jul 10 9:00 PM — Jul 25 9:00 PM, Selkirk, Weather by CustomWeather, © 2014

Note: Actual official high and low records may vary slightly from our data, if they occured in-between our weather recording intervals... More about our weather records

Advertising

Selkirk weather history for previous 24 hours

 ConditionsComfort  
Time TempWeatherWind HumidityBarometerVisibility
9:00 PM
Jul 25
76 °FMild.3 mph38%29.68 "HgN/A
8:00 PM79 °FPleasantly warm.3 mph36%29.67 "HgN/A
7:00 PM80 °FPleasantly warm.6 mph32%29.66 "HgN/A
6:00 PM81 °FPleasantly warm.5 mph31%29.66 "HgN/A
5:00 PM81 °FPleasantly warm.6 mph28%29.66 "HgN/A
4:00 PM80 °FPleasantly warm.7 mph34%29.66 "HgN/A
3:00 PM79 °FWarm.7 mph53%29.66 "HgN/A
2:00 PM76 °FMild.5 mph70%29.67 "HgN/A
1:00 PM74 °FMild.8 mph74%29.68 "HgN/A
12:00 PM75 °FMild.2 mph69%29.68 "HgN/A
11:00 AM73 °FMild.3 mph71%29.68 "HgN/A
10:00 AM70 °FMild.1 mph77%29.70 "HgN/A
9:00 AM68 °FMild.1 mph76%29.72 "HgN/A
8:00 AM67 °FMild.1 mph79%29.72 "HgN/A
7:00 AM64 °FMild.2 mph81%29.71 "HgN/A
6:00 AM65 °FMild.2 mph81%29.70 "HgN/A
5:00 AM65 °FMild.1 mph80%29.72 "HgN/A
4:00 AM65 °FMild.3 mph81%29.71 "HgN/A
3:00 AM64 °FMild.3 mph85%29.73 "HgN/A
2:00 AM66 °FMild.3 mph81%29.78 "HgN/A
1:00 AM65 °FMild.2 mph83%29.83 "HgN/A
12:00 AM66 °FMild.2 mph82%29.81 "HgN/A
11:00 PM
Jul 24
68 °FMild.3 mph75%29.81 "HgN/A
Weather by CustomWeather, © 2014

See weather overviewHow to use our weather pages